Location: Kelshall
(52.0000°N, 0.0500°W)
Time: 13:43:59
(UTC+00:00)

Cosmos 1513 Rocket - Pass Details

Date: 18 September 2020
Orbit: 939 x 1009 km, 82.9° (Epoch: 25 October)

Event Time Altitude Azimuth Distance (km) Brightness Sun altitude
Rises 19:34:56 0° 185° (S) 3,690 7.4 -14.0°
Reaches altitude 10° 19:37:28 10° 185° (S) 2,736 6.7 -14.4°
Maximum altitude 19:43:44 85° 99° (E) 984 4.4 -15.3°
Drops below altitude 10° 19:49:57 10° 11° (N) 2,705 7.0 -16.2°
Sets 19:52:26 0° 11° (N) 3,647 7.7 -16.5°
